Regional Weather Roundup
Issued by NWS Newport/Morehead, NC

Current Version | Previous Version | Graphics & Text | Print | Product List | Glossary Off
Versions: 1 2 3 4 5 6 7 8 9 10 11 12 13 14 15 16 17 18 19 20 21 22 23 24 25 26 27 28 29 30 31 32 33 34 35 36 37 38 39 40 41 42 43 44 45 46 47 48 49 50

000
ASUS42 KMHX 301413
RWRMHX
WEATHER ROUNDUP FOR EASTERN NORTH CAROLINA
NATIONAL WEATHER SERVICE NEWPORT/MOREHEAD CITY NC
1000 AM EDT THU JUL 30 2015

NOTE: "FAIR" INDICATES FEW OR NO CLOUDS BELOW 12,000 FEET
WITH NO SIGNIFICANT WEATHER AND/OR OBSTRUCTIONS TO VISIBILITY

NCZ015>017-031-032-045>047-102-103-301500-
NORTH COAST

CITY           SKY/WX    TMP DP  RH WIND       PRES   REMARKS
EDENTON          N/A     83  74  74 CALM      29.96F
ELIZABETH CITY MOSUNNY   84  77  79 E6        29.96F
KITTY HAWK     PTSUNNY   87  77  72 E3        29.95S
MANTEO         MOSUNNY   84  76  77 S7        29.96S

$$

NCZ045>047-081-094-103-104-301500-
CENTRAL COAST

CITY           SKY/WX    TMP DP  RH WIND       PRES   REMARKS
FRISCO         PTSUNNY   82  77  84 SW12      29.96F
SWANQUARTER      N/A     88 N/A N/A S8        29.91S

$$

NCZ095-097-098-100-101-301500-
SOUTHERN COAST

CITY           SKY/WX    TMP DP  RH WIND       PRES   REMARKS
BEAUFORT       SUNNY     85  78  80 S13       29.94R
CEDAR ISLAND     N/A     86 N/A N/A E13       29.97F
JACKSONVILLE   SUNNY     83  75  77 NE6       29.94F
PINEY ISLAND   PTSUNNY  N/A N/A N/A MISG      29.95R
WILMINGTON     MOSUNNY   83  76  79 N5        29.96S


$$

NCZ011>013-027>030-043-044-078>080-089-090>093-098-301500-
COASTAL PLAIN

CITY           SKY/WX    TMP DP  RH WIND       PRES   REMARKS
AHOSKIE        SUNNY     81  72  73 CALM      29.97F
CLINTON        SUNNY     83  75  76 CALM      29.98S
ELIZABETHTOWN  SUNNY     82  71  70 N3        29.97F
GOLDSBORO      SUNNY     83  74  75 W2        29.95S
GREENVILLE     SUNNY     82  75  78 CALM      29.98F
HAVELOCK       MOSUNNY   87  77  72 E6        29.95S
KENANSVILLE    MOSUNNY   82  72  72 CALM      29.98S
KINSTON        MOSUNNY   82  75  78 NW5       29.98S
NEW BERN       MOSUNNY   84  77  79 N6        29.96F
RICHLANDS      PTSUNNY   82  73  74 N7        29.95F
ROCKY MOUNT    SUNNY     84  72  67 W3        29.97F
WASHINGTON     SUNNY     83  76  79 CALM      29.96F
WHITEVILLE     SUNNY     82  74  75 NE6       29.97S

$$

AMZ130-135-150-152-154-156-158-170-250-252-270-ANZ085-086-088-633-658-670-301500-
MARINE OBSERVATIONS

STATION/POSITION TIME  TEMP    WIND        PRES    WAVE   SWELL
                       AIR SEA DIR/SP/G            HT/PER HT/PER
                 (UTC) (F)     (DEG/KT/KT) (MB)    (FT/S) (FT/S)
CHESAPEAKE LIGHT 1400   80     160/  8/  8 1015.2
64 E VA BEACH    1350   81 82  140/  8/  8 1014.2    3/11   2/11
DUCK             1306   81 63  110/  5/  6 1013.8
2 E DUCK         1311      71                N/A     2/10
OREGON INLET     1300   82 80  100/  7/  8 1014.5
13E OREGON INLT  1400      81                N/A     3/10
HATTERAS CG      1306   80 83  210/  6/  9 1014.3
DIAMOND BUOY     1350   84 85  170/ 17/ 21 1014.3    4/ 7   2/ 7
CAPE LOOKOUT     1400   82     180/ 14/ 15 1013.8
BEAUFORT LAB     1306   83 81  120/  7/  8 1013.0
30 SE NEW RVR IN NOT AVBL
27 SE WRIGHTSVLE 1300   78 82   10/  6/  8   N/A
5 SE WRIGHTSVLE  1308   78 82   20/  6/  8 1014.2
225 S CAPE HAT   1350   81 81  190/ 19/ 23 1015.4    9/ 8
41 SE CHARLESTON 1350   82 84   20/ 12/ 14 1013.3    3/ 8   3/ 8

$$


USA.gov is the U.S. government's official web portal to all federal, state and local government web resources and services.